| time (UTC) | temp C | wind direction | speed KPH | gust KPH | rain 1hr cm | rain 24hr cm | rain mn cm | humidity % | barometer mb |
| 20260505052019 | 19 | 180 | 9.7 | 19.3 | 0.00 | 0.00 | 0.00 | 48 | 1002.0 |
| 20260505051019 | 19 | 180 | 14.5 | 22.5 | 0.00 | 0.00 | 0.00 | 48 | 1001.9 |
| 20260505041019 | 19 | 203 | 11.3 | 24.1 | 0.00 | 0.00 | 0.00 | 45 | 1001.8 |
| 20260505040018 | 19 | 180 | 11.3 | 25.7 | 0.00 | 0.00 | 0.00 | 45 | 1001.8 |
| 20260505035019 | 19 | 180 | 14.5 | 30.6 | 0.00 | 0.00 | 0.00 | 44 | 1001.7 |
| 20260505034018 | 19 | 180 | 14.5 | 24.1 | 0.00 | 0.00 | 0.00 | 43 | 1001.5 |
| 20260505033039 | 19 | 180 | 14.5 | 27.4 | 0.00 | 0.00 | 0.00 | 43 | 1001.6 |
| 20260505032019 | 20 | 180 | 16.1 | 27.4 | 0.00 | 0.00 | 0.00 | 43 | 1001.8 |
| 20260505031018 | 20 | 180 | 16.1 | 29.0 | 0.00 | 0.00 | 0.00 | 43 | 1001.7 |
| 20260505030018 | 20 | 203 | 16.1 | 25.7 | 0.00 | 0.00 | 0.00 | 43 | 1001.7 |
| 20260505025019 | 20 | 180 | 17.7 | 27.4 | 0.00 | 0.00 | 0.00 | 43 | 1001.8 |
| 20260505024038 | 20 | 225 | 14.5 | 32.2 | 0.00 | 0.00 | 0.00 | 42 | 1001.8 |
| 20260505023018 | 20 | 180 | 17.7 | 33.8 | 0.00 | 0.00 | 0.00 | 43 | 1001.9 |
| 20260505022018 | 18 | 180 | 12.9 | 22.5 | 0.00 | 0.00 | 0.00 | 44 | 1001.8 |
| 20260505021018 | 18 | 180 | 11.3 | 19.3 | 0.00 | 0.00 | 0.00 | 44 | 1001.8 |
| 20260505020018 | 18 | 180 | 12.9 | 20.9 | 0.00 | 0.00 | 0.00 | 44 | 1001.8 |
| 20260505015018 | 18 | 180 | 9.7 | 17.7 | 0.00 | 0.00 | 0.00 | 44 | 1001.9 |
| 20260505014019 | 17 | 180 | 9.7 | 16.1 | 0.00 | 0.00 | 0.00 | 45 | 1001.7 |
| 20260505013018 | 17 | 180 | 8.0 | 11.3 | 0.00 | 0.00 | 0.00 | 47 | 1001.8 |
| 20260505012018 | 18 | 180 | 6.4 | 14.5 | 0.00 | 0.00 | 0.00 | 46 | 1001.9 |
| 20260505011038 | 18 | 180 | 6.4 | 9.7 | 0.00 | 0.00 | 0.00 | 46 | 1001.8 |
| 20260505010018 | 19 | 158 | 6.4 | 9.7 | 0.00 | 0.00 | 0.00 | 43 | 1001.7 |
| 20260505005018 | 20 | 158 | 3.2 | 4.8 | 0.00 | 0.00 | 0.00 | 41 | 1001.8 |
| 20260505004018 | 20 | 158 | 4.8 | 6.4 | 0.00 | 0.00 | 0.00 | 39 | 1001.7 |
| 20260505003018 | 21 | 158 | 3.2 | 4.8 | 0.00 | 0.00 | 0.00 | 37 | 1001.7 |
| 20260505002019 | 21 | 158 | 4.8 | 6.4 | 0.00 | 0.00 | 0.00 | 35 | 1001.6 |
| 20260505001021 | 22 | 158 | 3.2 | 6.4 | 0.00 | 0.00 | 0.00 | 33 | 1001.6 |
| 20260505000018 | 22 | 203 | 4.8 | 6.4 | 0.00 | 0.00 | 0.00 | 32 | 1001.7 |
| 20260504235018 | 23 | 158 | 3.2 | 4.8 | 0.00 | 0.00 | 0.00 | 31 | 1001.5 |
| 20260504234018 | 23 | 203 | 3.2 | 8.0 | 0.00 | 0.00 | 0.00 | 30 | 1001.5 |
| 20260504233017 | 23 | 225 | 4.8 | 17.7 | 0.00 | 0.00 | 0.00 | 30 | 1001.4 |
| 20260504232017 | 24 | 225 | 4.8 | 8.0 | 0.00 | 0.00 | 0.00 | 29 | 1001.4 |
| 20260504231018 | 24 | 225 | 4.8 | 11.3 | 0.00 | 0.00 | 0.00 | 29 | 1001.4 |
| 20260504230038 | 24 | 225 | 4.8 | 14.5 | 0.00 | 0.00 | 0.00 | 28 | 1001.4 |
| 20260504225018 | 24 | 225 | 6.4 | 14.5 | 0.00 | 0.00 | 0.00 | 28 | 1001.5 |
| 20260504224037 | 24 | 248 | 8.0 | 19.3 | 0.00 | 0.00 | 0.00 | 29 | 1001.6 |
| 20260504223017 | 24 | 248 | 11.3 | 25.7 | 0.00 | 0.00 | 0.00 | 29 | 1001.8 |
| 20260504222017 | 24 | 225 | 11.3 | 24.1 | 0.00 | 0.00 | 0.00 | 28 | 1001.8 |
| 20260504221017 | 24 | 225 | 14.5 | 27.4 | 0.00 | 0.00 | 0.00 | 29 | 1001.8 |
| 20260504220017 | 24 | 248 | 11.3 | 20.9 | 0.00 | 0.00 | 0.00 | 30 | 1001.8 |
| 20260504215017 | 24 | 248 | 9.7 | 17.7 | 0.00 | 0.00 | 0.00 | 30 | 1001.8 |
| 20260504214017 | 24 | 225 | 12.9 | 24.1 | 0.00 | 0.00 | 0.00 | 29 | 1001.9 |
| 20260504213017 | 24 | 270 | 12.9 | 24.1 | 0.00 | 0.00 | 0.00 | 30 | 1002.0 |
| 20260504212017 | 25 | 225 | 11.3 | 24.1 | 0.00 | 0.00 | 0.00 | 31 | 1001.9 |
| 20260504211017 | 24 | 248 | 16.1 | 25.7 | 0.00 | 0.00 | 0.00 | 30 | 1002.1 |
| 20260504210017 | 24 | 248 | 14.5 | 29.0 | 0.00 | 0.00 | 0.00 | 31 | 1002.0 |
| 20260504205017 | 24 | 248 | 9.7 | 24.1 | 0.00 | 0.00 | 0.00 | 32 | 1002.1 |
| 20260504204017 | 23 | 225 | 16.1 | 30.6 | 0.00 | 0.00 | 0.00 | 33 | 1002.2 |
| 20260504203037 | 23 | 270 | 14.5 | 27.4 | 0.00 | 0.00 | 0.00 | 33 | 1002.3 |
| 20260504202017 | 23 | 248 | 14.5 | 27.4 | 0.00 | 0.00 | 0.00 | 33 | 1002.5 |
| 20260504201017 | 23 | 203 | 16.1 | 33.8 | 0.00 | 0.00 | 0.00 | 34 | 1002.6 |
| 20260504200017 | 23 | 248 | 16.1 | 30.6 | 0.00 | 0.00 | 0.00 | 35 | 1002.7 |
| 20260504195057 | 23 | 225 | 19.3 | 29.0 | 0.00 | 0.00 | 0.00 | 35 | 1002.8 |
| 20260504194018 | 23 | 248 | 11.3 | 27.4 | 0.00 | 0.00 | 0.00 | 35 | 1003.0 |
| 20260504193017 | 23 | 225 | 17.7 | 32.2 | 0.00 | 0.00 | 0.00 | 35 | 1003.1 |
| 20260504192019 | 22 | 225 | 19.3 | 35.4 | 0.00 | 0.00 | 0.00 | 37 | 1003.3 |
| 20260504191039 | 22 | 248 | 19.3 | 38.6 | 0.00 | 0.00 | 0.00 | 38 | 1003.4 |
| 20260504190019 | 22 | 225 | 14.5 | 27.4 | 0.00 | 0.00 | 0.00 | 39 | 1003.5 |
| 20260504185019 | 22 | 225 | 12.9 | 24.1 | 0.00 | 0.00 | 0.00 | 39 | 1003.5 |
| 20260504184018 | 22 | 248 | 11.3 | 25.7 | 0.00 | 0.00 | 0.00 | 39 | 1003.6 |
| 20260504183019 | 22 | 270 | 9.7 | 19.3 | 0.00 | 0.00 | 0.00 | 39 | 1003.7 |
| 20260504182019 | 22 | 248 | 17.7 | 53.1 | 0.00 | 0.00 | 0.00 | 39 | 1003.9 |
| 20260504181019 | 22 | 270 | 16.1 | 27.4 | 0.00 | 0.00 | 0.00 | 40 | 1004.0 |
| 20260504180039 | 21 | 270 | 14.5 | 32.2 | 0.00 | 0.00 | 0.00 | 40 | 1004.0 |
| 20260504175019 | 22 | 248 | 16.1 | 27.4 | 0.00 | 0.00 | 0.00 | 40 | 1004.0 |
| 20260504174019 | 21 | 248 | 14.5 | 30.6 | 0.00 | 0.00 | 0.00 | 40 | 1004.1 |
| 20260504173039 | 21 | 248 | 12.9 | 25.7 | 0.00 | 0.00 | 0.00 | 40 | 1004.1 |
| 20260504172018 | 21 | 225 | 11.3 | 27.4 | 0.00 | 0.00 | 0.00 | 40 | 1004.1 |
| 20260504171018 | 21 | 248 | 14.5 | 22.5 | 0.00 | 0.00 | 0.00 | 41 | 1004.3 |
| 20260504151038 | 17 | 248 | 11.3 | 29.0 | 0.00 | 0.00 | 0.00 | 44 | 1005.5 |
| 20260504141018 | 15 | 225 | 14.5 | 27.4 | 0.00 | 0.00 | 0.00 | 46 | 1005.8 |
| 20260504081018 | 11 | 225 | 9.7 | 17.7 | 0.00 | 0.00 | 0.00 | 50 | 1006.5 |